McConnell AFB, KS

8:17 AM CST on December 08, 2019 (GMT -0600)
McConnell Air Force Base

Weather History for KIAB - November, 2019

Change the Weather History Date:

Tuesday, November 12, 2019

  Actual Average Record
Temperature  
Mean Temperature 20 °F -  
Max Temperature 32 °F 55 °F 75 °F (1999)
Min Temperature 9 °F 36 °F 16 °F (2014)
Degree Days  
Heating Degree Days 44    
Moisture  
Dew Point 5 °F    
Average Humidity 53    
Maximum Humidity 76    
Minimum Humidity 28    
Precipitation  
Precipitation 0.00 in - - ()
Sea Level Pressure  
Sea Level Pressure 30.56 in    
Wind  
Wind Speed 8 mph ()    
Max Wind Speed 20 mph    
Max Gust Speed 18 mph    
Visibility 10.0 miles    
Events      
Averages and records for this station are not official NWS values.
T = Trace of Precipitation, MM = Missing Value Source: Averaged Metar Reports

Daily Weather History Graph

Daily Weather History Graph

Search for Another Location

Airport or City:

Astronomy

Nov. 12, 2019 Rise Set
Actual Time 7:05 AM CST 5:20 PM CST
Civil Twilight 6:37 AM CST 5:48 PM CST
Nautical Twilight 6:06 AM CST 6:19 PM CST
Astronomical Twilight 5:35 AM CST 6:50 PM CST
Moon 5:47 PM CST (11/12) 6:59 AM CST (11/12)
Length of Visible Light 11h 10m
Length of Day
10h 14m
Full, 100% of the Moon is Illuminated
Nov 12
Full
Nov 19
Last Quarter
Nov 26
New
Dec 4
First Quarter
Dec 11
Full

Hourly Weather History & Observations

Time (CST) Temp. Windchill Dew Point Humidity Pressure Visibility Wind Dir Wind Speed Gust Speed Precip Events Conditions
12:56 AM 14.0 °F 2.0 °F 4.6 °F 66% 30.76 in 10.0 mi North 9.2 mph - N/A   Clear
1:56 AM 13.3 °F 2.0 °F 5.0 °F 70% 30.77 in 10.0 mi North 8.1 mph - N/A   Clear
2:56 AM 12.6 °F 1.1 °F 4.8 °F 71% 30.77 in 10.0 mi North 8.1 mph - N/A   Clear
3:56 AM 11.8 °F 0.3 °F 4.5 °F 72% 30.75 in 10.0 mi North 8.1 mph - N/A   Clear
4:56 AM 11.1 °F 0.4 °F 4.5 °F 75% 30.73 in 10.0 mi North 6.9 mph - N/A   Clear
5:56 AM 10.2 °F 2.0 °F 4.1 °F 76% 30.73 in 10.0 mi North 4.6 mph - N/A   Clear
6:56 AM 9.5 °F - 3.4 °F 76% 30.73 in 10.0 mi Calm Calm - N/A   Clear
7:56 AM 12.0 °F - 5.5 °F 75% 30.74 in 10.0 mi Calm Calm - N/A   Clear
8:56 AM 15.3 °F - 5.9 °F 67% 30.72 in 10.0 mi Calm Calm - N/A   Clear
9:56 AM 18.1 °F - 7.0 °F 62% 30.69 in 10.0 mi Calm Calm - N/A   Clear
10:56 AM 21.4 °F 11.1 °F 7.3 °F 55% 30.68 in 10.0 mi South 9.2 mph - N/A   Clear
11:56 AM 24.6 °F 14.4 °F 4.8 °F 43% 30.65 in 10.0 mi South 10.4 mph - N/A   Clear
12:56 PM 28.0 °F 17.5 °F 3.9 °F 36% 30.58 in 10.0 mi SSE 12.7 mph - N/A   Clear
1:56 PM 30.9 °F 20.7 °F 3.0 °F 31% 30.52 in 10.0 mi SE 13.8 mph 18.4 mph N/A   Clear
2:56 PM 32.2 °F 21.4 °F 1.9 °F 28% 30.46 in 10.0 mi SSE 16.1 mph - N/A   Clear
3:56 PM 32.2 °F 21.4 °F 1.9 °F 28% 30.43 in 10.0 mi SE 16.1 mph - N/A   Clear
4:56 PM 30.2 °F 18.5 °F 2.5 °F 31% 30.41 in 10.0 mi SSE 17.3 mph - N/A   Clear
5:56 PM 27.7 °F 15.6 °F 1.6 °F 33% 30.40 in 10.0 mi SSE 16.1 mph - N/A   Clear
6:56 PM 26.6 °F 15.2 °F 3.7 °F 38% 30.41 in 10.0 mi SSE 13.8 mph - N/A   Clear
7:56 PM 25.0 °F 13.1 °F 4.1 °F 41% 30.38 in 10.0 mi SE 13.8 mph - N/A   Clear
8:56 PM 25.0 °F 12.6 °F 7.2 °F 47% 30.35 in 10.0 mi SE 15.0 mph - N/A   Clear
9:56 PM 25.0 °F 11.3 °F 6.6 °F 46% 30.31 in 10.0 mi SE 18.4 mph - N/A   Clear
10:56 PM 25.0 °F 10.9 °F 7.2 °F 47% 30.27 in 10.0 mi SE 19.6 mph - N/A   Clear
11:56 PM 23.9 °F 9.9 °F 8.4 °F 52% 30.24 in 10.0 mi SSE 18.4 mph - N/A   Clear